IR4UCA Weather Reports


time (UTC)temp
C
wind
direction
speed
KPH
gust
KPH
rain 1hr
cm
rain 24hr
cm
rain mn
cm
humidity
%
barometer
mb
20260504205943 20 220 9.7 19.3 0.00 0.00 0.00 57 1015.3
20260504204945 20 197 9.7 27.4 0.00 0.00 0.00 57 1015.2
20260504203944 20 196 11.3 24.1 0.00 0.00 0.00 56 1015.2
20260504202943 20 193 12.9 20.9 0.00 0.00 0.00 56 1015.1
20260504200944 20 216 16.1 27.4 0.00 0.00 0.00 56 1015.0
20260504195943 20 172 9.7 22.5 0.00 0.00 0.00 55 1015.0
20260504194943 20 164 9.7 22.5 0.00 0.00 0.00 55 1014.8
20260504193944 20 142 9.7 22.5 0.00 0.00 0.00 54 1014.7
20260504192944 20 186 9.7 19.3 0.00 0.00 0.00 53 1014.8
20260504191945 21 128 8.0 22.5 0.00 0.00 0.00 51 1014.6
20260504190943 21 157 8.0 20.9 0.00 0.00 0.00 50 1014.7
20260504185944 21 199 6.4 24.1 0.00 0.00 0.00 49 1014.6
20260504184944 21 221 9.7 17.7 0.00 0.00 0.00 48 1014.7
20260504183944 21 182 6.4 17.7 0.00 0.00 0.00 47 1014.7
20260504182944 22 221 3.2 14.5 0.00 0.00 0.00 47 1014.6
20260504180943 22 203 6.4 17.7 0.00 0.00 0.00 45 1014.6
20260504175944 23 182 9.7 19.3 0.00 0.00 0.00 44 1014.5
20260504174944 23 131 8.0 27.4 0.00 0.00 0.00 43 1014.4
20260504173943 23 214 9.7 20.9 0.00 0.00 0.00 42 1014.5
20260504170943 24 209 8.0 20.9 0.00 0.00 0.00 39 1014.6
20260504150943 25 206 6.4 20.9 0.00 0.00 0.00 36 1015.2
20260504140943 26 83 4.8 11.3 0.00 0.00 0.00 32 1015.3
20260504081948 20 210 1.6 3.2 0.00 0.00 0.00 45 1017.8
20260504080944 20 210 1.6 8.0 0.00 0.00 0.00 47 1017.8
20260504045944 15 197 9.7 22.5 0.00 0.00 0.00 52 1016.5